Wind_Speed
38 38 39 39 40 41 42 42 43 43 42 42 42 41 41 42 42 42 42 42 41 41 42 43 43 45 45 44 44 45 44 43 40 38 38 38 41 43 44 45 43 42 40
39 39 40 41 42 43 44 44 43 43 42 41 41 41 41 41 42 43 44 44 44 44 44 45 46 48 49 49 48 47 47 47 44 42 42 41 41 44 45 46 45 44 42
40 41 42 43 44 45 45 44 43 42 41 40 39 40 41 42 42 44 45 46 47 48 48 48 49 50 52 53 53 52 50 49 49 47 45 44 44 45 47 47 46 45 44
43 44 44 45 45 45 45 44 42 41 39 39 39 40 41 42 43 45 46 47 49 50 51 51 52 53 54 56 57 57 55 53 52 51 48 46 47 47 48 48 47 47 45
45 46 46 46 47 46 45 43 41 39 39 39 39 40 42 43 44 45 46 47 49 50 52 53 53 54 55 58 60 61 60 58 56 55 53 50 49 49 48 48 48 48 47
47 47 47 47 47 46 44 41 40 39 39 39 40 41 42 43 44 45 45 46 47 48 50 52 54 54 55 57 60 63 64 63 60 59 56 54 51 49 49 48 49 49 48
48 49 49 49 47 45 43 41 40 40 39 40 41 42 41 42 43 43 44 45 46 46 47 49 51 52 54 56 59 63 66 67 65 63 60 57 54 51 50 49 49 50 49
49 49 50 49 48 45 43 42 41 40 40 41 41 41 41 41 41 42 43 44 43 44 45 47 48 50 52 54 57 62 66 68 68 65 62 59 58 54 51 49 50 51 50
49 49 50 49 47 45 43 41 40 40 40 40 40 40 40 40 41 41 41 42 41 42 43 43 44 47 50 52 55 60 65 68 70 69 67 63 61 58 54 52 51 51 50
48 49 49 49 47 45 43 41 40 40 40 39 38 38 39 39 39 39 39 38 37 36 36 38 40 43 46 49 52 57 63 67 70 71 68 65 62 60 56 53 51 49 49
48 49 49 49 48 45 43 41 40 40 39 38 37 37 38 38 36 35 34 32 30 29 29 30 32 37 41 45 49 53 59 64 68 70 69 67 64 61 58 55 51 49 49
48 49 49 49 48 45 43 41 40 40 38 37 36 36 37 36 32 30 28 26 24 22 20 22 25 30 35 40 44 49 54 59 64 67 68 66 64 60 58 56 52 49 49
48 49 49 49 47 45 42 41 40 39 38 37 35 35 34 32 28 26 24 21 17 14 12 14 19 25 29 35 40 46 49 53 59 63 64 63 62 60 58 56 53 51 50
47 48 48 48 46 44 42 41 40 39 37 36 34 33 32 29 25 23 21 16 11 7 5 8 15 21 26 32 37 42 44 47 52 56 59 60 60 60 58 56 53 51 49
47 47 48 47 45 43 41 40 39 37 36 34 32 31 29 26 23 21 17 12 7 3 2 7 13 18 22 28 32 36 40 44 46 50 55 58 59 58 57 57 54 51 49
46 46 46 46 44 42 40 39 38 36 35 33 31 29 26 23 20 18 14 10 6 2 4 8 12 16 20 25 31 33 37 41 42 47 51 54 57 58 57 57 55 52 49
45 45 45 44 43 40 38 37 36 35 33 31 29 26 24 21 18 16 11 7 4 3 5 8 11 15 19 24 28 31 34 37 39 43 47 51 55 57 57 56 54 52 49
45 44 44 42 41 39 37 35 34 32 31 29 27 24 22 19 15 12 9 5 3 4 6 8 11 14 17 20 23 28 32 34 36 40 44 48 52 55 57 56 54 53 51
43 42 42 40 39 37 36 34 32 31 29 28 26 22 20 17 14 10 7 4 1 4 6 9 11 13 15 17 20 24 27 30 34 38 42 46 49 53 55 56 55 53 51
41 40 40 38 37 35 34 32 30 28 28 27 25 21 18 16 13 10 6 3 1 5 8 10 12 14 15 17 19 21 24 27 30 35 40 45 48 51 54 56 56 54 51
39 39 38 37 35 33 31 30 28 27 26 25 23 20 17 15 13 10 6 3 3 6 10 12 13 15 16 17 18 20 21 23 26 30 35 41 46 50 52 54 56 54 53
38 37 36 35 33 31 29 28 27 25 24 24 22 20 17 15 13 11 7 5 6 8 11 14 15 16 17 17 18 19 20 22 24 27 31 36 41 47 50 53 54 54 53
36 35 34 33 31 29 27 26 25 23 22 22 22 19 17 15 13 11 8 6 7 9 12 15 17 18 18 18 18 19 20 21 23 25 29 33 37 43 48 51 53 53 52
33 32 32 31 29 27 25 23 23 21 20 20 20 19 17 15 14 12 10 8 7 9 12 15 18 19 20 20 19 19 20 21 22 24 27 30 34 39 45 49 51 51 51
31 30 30 29 27 25 23 21 20 19 19 19 19 19 18 16 15 13 11 8 7 9 12 15 18 20 21 21 20 20 21 21 22 23 25 28 31 35 40 45 48 49 50
30 28 28 27 25 23 21 19 18 17 17 18 18 18 18 17 16 14 12 8 5 6 9 13 17 20 22 22 22 21 21 22 23 23 24 26 29 32 37 40 44 47 49
Wind_Direction
324 322 320 317 314 311 308 305 301 297 293 289 286 283 280 279 277 276 274 271 266 262 257 253 249 244 240 238 235 233 230 226 223 223 223 221 217 215 215 217 217 215 213
327 326 323 321 318 315 312 308 304 300 295 291 287 284 282 280 279 277 275 272 269 265 260 256 251 245 240 237 235 233 230 227 224 222 221 220 218 215 215 216 216 214 213
330 329 327 325 322 318 315 311 307 303 298 294 291 288 285 283 281 279 276 273 270 267 263 258 253 247 241 237 234 232 230 227 225 222 220 218 217 215 214 215 215 214 213
332 331 329 327 325 321 318 313 309 305 301 297 294 291 288 286 284 281 278 274 271 268 264 260 255 249 243 237 233 231 229 227 225 223 220 218 217 215 213 213 213 213 213
333 333 331 330 327 324 320 316 311 307 304 300 297 294 291 289 287 283 280 276 272 269 265 261 256 250 244 238 233 230 228 226 225 223 220 218 217 214 212 211 212 213 213
334 334 333 331 329 325 322 317 314 310 307 303 300 298 295 293 290 286 282 279 275 271 266 261 256 251 245 239 233 228 226 225 223 222 220 218 217 214 212 211 211 212 213
334 334 334 333 330 327 323 319 316 314 310 307 305 302 299 296 293 290 287 282 278 273 267 260 255 250 244 238 232 226 223 222 221 221 219 218 217 214 213 212 211 211 212
334 334 334 334 332 329 325 321 319 317 314 312 308 306 303 300 297 294 290 286 281 274 268 260 254 248 243 236 230 224 220 219 218 218 218 217 216 214 212 211 211 210 212
335 335 335 335 333 330 326 323 321 320 318 316 312 309 307 304 300 297 293 289 283 275 269 260 252 245 239 233 227 222 218 215 215 215 215 215 215 214 212 211 210 210 211
335 336 336 335 334 331 328 326 324 323 321 319 316 314 312 310 305 301 298 293 286 278 268 258 249 240 234 228 223 218 215 213 212 213 213 212 213 212 212 211 210 210 211
336 336 336 336 335 333 330 328 327 326 325 322 320 318 317 315 311 307 304 299 292 281 269 257 245 235 228 222 216 213 210 210 210 211 211 211 211 211 211 211 210 209 209
336 336 336 336 336 335 332 331 330 330 328 326 324 324 323 322 318 315 312 305 298 287 270 252 237 226 218 212 209 207 206 206 208 209 209 209 210 210 211 210 210 210 207
335 336 336 336 336 336 334 333 333 332 331 330 328 328 329 329 326 325 322 317 308 292 266 238 220 211 206 202 200 200 200 204 206 206 207 207 208 208 209 209 208 209 209
335 336 336 336 336 336 335 335 335 335 333 333 333 333 334 335 334 334 333 330 323 308 259 214 201 196 194 193 194 195 197 200 202 203 204 205 204 205 207 207 207 208 209
333 335 335 336 336 336 336 336 337 337 337 337 337 337 339 340 340 341 343 343 344 340 182 179 178 179 185 188 190 191 193 195 197 200 202 203 203 203 204 205 207 207 207
332 333 334 335 336 336 337 337 339 339 340 340 340 340 342 344 345 347 349 354 4 60 146 163 168 170 173 180 186 189 189 191 194 196 198 200 201 202 203 203 205 206 206
330 331 332 333 335 336 337 339 341 341 342 342 342 343 346 348 350 354 1 10 34 85 135 154 159 164 169 176 182 186 188 190 193 194 196 198 199 200 202 203 204 205 205
327 328 330 332 334 335 337 339 342 344 345 345 344 345 348 350 352 356 5 20 60 119 142 155 164 167 171 176 183 186 189 191 193 194 195 196 198 199 201 203 203 203 205
323 325 328 331 333 335 337 340 342 345 347 348 347 347 349 352 354 355 357 7 132 159 163 167 172 175 177 181 185 188 191 194 196 196 196 197 197 198 200 201 201 202 204
321 323 326 329 332 333 336 339 342 345 347 348 349 348 348 350 352 351 345 337 213 191 185 181 178 178 182 185 188 191 193 196 197 198 199 198 198 198 199 200 201 201 201
319 321 324 327 330 332 334 338 342 345 347 349 350 350 348 347 347 343 329 291 234 209 200 193 189 186 184 184 187 189 192 196 198 199 200 200 199 199 199 199 200 202 202
317 319 321 324 327 329 332 336 341 344 347 350 352 351 349 346 342 337 324 287 244 221 208 202 196 193 190 189 188 189 192 195 199 200 202 202 201 200 200 200 200 201 203
316 316 318 322 325 327 329 334 340 343 347 350 353 353 351 347 343 335 322 295 253 229 216 209 205 202 199 196 194 195 197 199 200 201 202 202 201 200 199 200 201 202 204
314 316 317 320 323 325 328 333 338 342 346 349 355 357 354 350 345 337 324 299 261 235 221 214 210 207 205 202 201 200 200 201 201 200 200 201 202 201 201 201 202 203 203
311 313 316 319 322 324 326 331 337 342 346 349 353 356 358 356 351 345 336 317 274 245 228 216 211 208 206 205 203 203 202 202 202 200 198 200 201 201 202 203 203 202 202
309 311 313 317 320 322 324 328 335 342 347 350 352 355 358 359 359 355 350 339 299 245 224 215 211 207 205 206 206 204 202 201 201 200 199 199 200 201 201 200 200 200 200
Height
5763 5757 5750 5744 5738 5732 5726 5720 5715 5710 5705 5701 5697 5694 5691 5689 5688 5687 5687 5688 5689 5691 5693 5696 5700 5704 5708 5712 5716 5721 5726 5731 5737 5742 5748 5753 5759 5764 5770 5775 5781 5788 5793
5756 5749 5742 5735 5728 5721 5715 5708 5702 5697 5692 5687 5684 5681 5678 5676 5674 5673 5672 5672 5673 5675 5677 5679 5683 5687 5692 5697 5702 5708 5714 5719 5725 5731 5737 5743 5749 5755 5761 5767 5773 5780 5786
5749 5742 5734 5727 5719 5711 5703 5696 5690 5684 5679 5674 5671 5667 5664 5662 5660 5658 5656 5656 5656 5657 5659 5661 5665 5669 5675 5680 5686 5693 5699 5706 5713 5719 5726 5732 5738 5744 5751 5757 5765 5772 5779
5742 5734 5726 5718 5709 5701 5693 5685 5678 5672 5667 5663 5658 5654 5651 5647 5645 5642 5640 5639 5638 5638 5639 5641 5644 5649 5655 5661 5669 5676 5684 5692 5699 5707 5714 5720 5727 5733 5740 5748 5756 5764 5771
5735 5726 5718 5709 5700 5691 5683 5675 5668 5662 5656 5651 5646 5641 5637 5633 5629 5625 5623 5621 5619 5618 5618 5619 5622 5627 5633 5641 5649 5658 5666 5676 5685 5693 5701 5708 5715 5723 5731 5738 5746 5755 5762
5727 5718 5709 5700 5691 5681 5673 5665 5658 5651 5645 5639 5634 5628 5623 5618 5613 5608 5605 5602 5600 5598 5597 5598 5600 5605 5611 5619 5628 5637 5648 5658 5669 5678 5688 5696 5705 5713 5721 5729 5737 5746 5755
5719 5710 5700 5691 5681 5672 5663 5655 5648 5641 5634 5627 5621 5614 5609 5602 5596 5591 5587 5583 5580 5578 5577 5577 5579 5583 5588 5596 5606 5616 5628 5639 5652 5663 5674 5684 5693 5702 5710 5719 5727 5735 5744
5711 5701 5692 5682 5673 5663 5654 5645 5637 5630 5623 5615 5608 5601 5595 5588 5581 5575 5569 5565 5561 5558 5557 5557 5559 5562 5568 5575 5585 5596 5608 5621 5635 5648 5661 5671 5680 5690 5699 5708 5717 5725 5734
5703 5694 5684 5674 5665 5655 5645 5636 5628 5620 5612 5604 5596 5589 5582 5575 5567 5560 5553 5548 5543 5540 5537 5537 5539 5543 5548 5555 5565 5578 5591 5603 5616 5630 5644 5656 5667 5678 5687 5696 5705 5715 5725
5696 5686 5676 5666 5656 5646 5637 5627 5619 5610 5602 5594 5586 5578 5570 5563 5554 5546 5538 5532 5526 5522 5520 5519 5521 5525 5530 5537 5548 5560 5574 5587 5601 5616 5629 5642 5654 5666 5676 5686 5697 5707 5716
5688 5679 5668 5658 5648 5638 5628 5619 5610 5602 5593 5585 5577 5568 5560 5551 5542 5534 5526 5519 5513 5509 5506 5505 5507 5511 5516 5525 5535 5547 5561 5574 5587 5601 5615 5629 5642 5654 5666 5677 5687 5698 5708
5681 5671 5661 5651 5640 5630 5621 5611 5602 5593 5584 5576 5567 5559 5550 5541 5532 5524 5516 5509 5504 5499 5497 5496 5498 5501 5507 5516 5526 5538 5550 5562 5575 5589 5603 5618 5632 5645 5657 5668 5679 5689 5698
5673 5664 5654 5643 5633 5623 5613 5604 5595 5585 5577 5568 5560 5551 5543 5533 5525 5517 5510 5503 5498 5494 5492 5492 5494 5498 5503 5511 5521 5532 5543 5555 5567 5580 5595 5609 5622 5635 5647 5658 5669 5679 5688
5667 5657 5647 5637 5626 5616 5607 5597 5588 5579 5570 5562 5553 5545 5537 5528 5521 5513 5506 5501 5496 5493 5492 5492 5494 5498 5503 5511 5519 5529 5539 5550 5561 5573 5586 5599 5612 5625 5638 5649 5660 5670 5680
5659 5650 5640 5631 5621 5611 5601 5592 5583 5574 5565 5557 5549 5541 5533 5526 5518 5512 5506 5501 5498 5495 5495 5495 5497 5501 5506 5512 5520 5528 5537 5547 5557 5568 5579 5592 5605 5617 5630 5641 5652 5663 5673
5653 5644 5634 5625 5615 5606 5596 5587 5577 5569 5561 5553 5545 5538 5531 5524 5518 5512 5507 5503 5500 5499 5499 5500 5502 5505 5509 5515 5521 5529 5537 5546 5555 5564 5575 5586 5598 5610 5622 5633 5644 5656 5665
5646 5638 5629 5620 5611 5601 5592 5583 5575 5566 5558 5550 5543 5536 5530 5524 5518 5513 5509 5506 5504 5503 5504 5505 5507 5510 5514 5518 5524 5531 5538 5545 5553 5562 5572 5582 5592 5604 5615 5626 5637 5648 5658
5639 5631 5623 5614 5606 5597 5588 5579 5571 5563 5556 5548 5541 5535 5529 5524 5519 5515 5511 5509 5508 5508 5508 5509 5511 5514 5518 5522 5527 5532 5539 5545 5553 5560 5569 5578 5588 5598 5609 5620 5630 5641 5651
5632 5625 5617 5609 5601 5593 5584 5576 5568 5561 5553 5546 5540 5534 5529 5524 5520 5517 5514 5512 5511 5511 5512 5513 5515 5518 5521 5525 5529 5534 5539 5545 5551 5558 5566 5574 5584 5593 5603 5614 5624 5634 5644
5624 5618 5611 5604 5596 5588 5581 5573 5566 5558 5552 5545 5538 5533 5528 5524 5520 5517 5515 5514 5513 5513 5514 5516 5518 5520 5523 5527 5531 5535 5539 5544 5550 5556 5563 5571 5579 5588 5598 5608 5618 5628 5638
5617 5611 5605 5598 5591 5584 5577 5570 5563 5556 5550 5543 5537 5532 5528 5524 5520 5518 5516 5514 5514 5514 5515 5517 5519 5522 5524 5528 5531 5535 5539 5544 5549 5554 5560 5567 5575 5583 5592 5602 5612 5621 5631
5610 5605 5599 5593 5587 5580 5574 5567 5561 5554 5548 5542 5537 5531 5527 5523 5520 5517 5515 5514 5513 5514 5515 5517 5519 5522 5525 5528 5532 5535 5539 5543 5547 5552 5558 5564 5571 5578 5587 5597 5606 5615 5625
5603 5598 5593 5588 5582 5576 5570 5564 5558 5553 5547 5541 5536 5531 5526 5522 5519 5516 5514 5512 5512 5512 5513 5515 5517 5520 5524 5527 5531 5535 5538 5542 5546 5550 5555 5561 5567 5575 5583 5591 5601 5610 5619
5596 5591 5587 5582 5577 5572 5567 5561 5556 5551 5546 5541 5535 5530 5526 5521 5518 5514 5512 5510 5509 5509 5510 5512 5515 5518 5521 5525 5529 5533 5537 5540 5544 5549 5553 5559 5565 5571 5579 5587 5595 5604 5613
5589 5585 5581 5577 5573 5568 5563 5559 5554 5549 5544 5540 5535 5530 5525 5521 5516 5513 5509 5507 5506 5506 5507 5509 5511 5515 5518 5522 5526 5530 5534 5539 5543 5547 5552 5557 5562 5568 5575 5583 5591 5599 5608
5583 5579 5576 5572 5568 5564 5560 5556 5552 5548 5543 5539 5534 5530 5525 5520 5516 5511 5508 5505 5503 5503 5503 5505 5508 5511 5515 5519 5523 5527 5532 5536 5540 5545 5549 5554 5560 5566 5572 5579 5587 5595 5603